Regional Weather Roundup
Issued by NWS Little Rock, AR

Home | Current Version | Previous Version | Text Only | Print | Product List | Glossary Off
Versions: 1 2 3 4 5 6 7 8 9 10 11 12 13 14 15 16 17 18 19 20 21 22 23 24 25 26 27 28 29 30 31

000
ASUS44 KLZK 200305
RWRLZK

WEATHER ROUNDUP FOR ARKANSAS
NATIONAL WEATHER SERVICE LITTLE ROCK AR
1000 PM CDT SAT AUG 19 2017

NOTE: "FAIR" INDICATES FEW OR NO CLOUDS BELOW 12,000 FEET WITH NO
SIGNIFICANT WEATHER AND/OR OBSTRUCTIONS TO VISIBILITY.

ARZ001-003-010-029-200400-
NORTHWEST ARKANSAS

CITY           SKY/WX    TMP DP  RH WIND       PRES   REMARKS
FAYETTEVILLE   CLEAR     76  75  97 S5        30.00R
FORT SMITH     CLEAR     86  78  77 SE3       29.95R HX  98
HARRISON       CLOUDY    79  76  90 S5        30.01R
BENTONVILLE    PTCLDY    82  72  69 S5        30.01R HX  87
ROGERS         PTCLDY    81  76  84 SE3       30.02R HX  87
SILOAM SPGS    CLEAR     81  70  69 SE5       29.99R
HIGHFILL       PTCLDY    81  74  79 CALM      30.00R HX  86
$$

ARZ004-005-016-200400-
NORTH CENTRAL ARKANSAS

CITY           SKY/WX    TMP DP  RH WIND       PRES   REMARKS
BATESVILLE     CLOUDY    75  72  88 NE3       30.00R
FLIPPIN        MOCLDY    82  72  69 SE3       29.97R HX  87
MTN HOME       PTCLDY    80  75  84 SE5       29.98R HX  85
$$

ARZ040-041-200400-
WEST CENTRAL ARKANSAS

CITY           SKY/WX    TMP DP  RH WIND       PRES   REMARKS
MENA           PTCLDY    86  82  89 CALM      30.01R HX 105
MOUNT IDA      CLEAR     81  76  84 CALM      29.98R HX  87
$$

ARZ009-017-025-026-028-200400-
NORTHEAST ARKANSAS

CITY           SKY/WX    TMP DP  RH WIND       PRES   REMARKS
CORNING        FAIR      79  79 100 S5        29.97R
JONESBORO      CLOUDY    80  78  94 SW6       29.97R HX  88
NEWPORT        PTCLDY    78  72  81 SW3       29.98S
WALNUT RIDGE   PTCLDY    79  70  73 SW6       29.97S
BLYTHEVILLE    CLOUDY    79  75  87 S5        29.98R
$$

ARZ022-023-033-042-044-200400-
CENTRAL ARKANSAS

CITY           SKY/WX    TMP DP  RH WIND       PRES   REMARKS
LITTLE ROCK    PTCLDY    81  78  91 SE5       29.97R HX  89
N LITTLE ROCK    N/A     84  76  77 CALM      29.98R HX  92
JACKSONVILLE   CLEAR     81  80  98 CALM      29.97R HX  92
CONWAY           N/A     82  79  89 S5        29.95R HX  93
SEARCY         CLEAR     76  74  93 NW3       29.99R
HOT SPRINGS    CLEAR     85  79  82 E3        29.99R HX  98
RUSSELLVILLE   CLEAR     80  77  90 CALM      29.96R HX  87
CLINTON        FAIR      79  77  94 CALM      29.99R
$$

ARZ036-200400-
EAST ARKANSAS

CITY           SKY/WX    TMP DP  RH WIND       PRES   REMARKS
WEST MEMPHIS   LGT RAIN  80  78  94 S3        29.96R HX  88
$$

ARZ050-053-066-070-073-200400-
SOUTHWEST ARKANSAS

CITY           SKY/WX    TMP DP  RH WIND       PRES   REMARKS
ARKADELPHIA    FAIR      80  79  96 CALM      29.97R HX  88
CAMDEN         CLEAR     81  77  89 CALM      29.96R HX  88
TEXARKANA      CLOUDY    83  76  79 S5        29.97R HX  91
EL DORADO      CLEAR     82  80  94 CALM      29.98R HX  94
DE QUEEN       CLOUDY    81  81 100 CALM      29.95R HX  92
$$

ARZ056-057-069-200400-
SOUTHEAST ARKANSAS

CITY           SKY/WX    TMP DP  RH WIND       PRES   REMARKS
MONTICELLO     CLEAR     85  77  77 S6        29.98R HX  95

$$






USA.gov is the U.S. government's official web portal to all federal, state and local government web resources and services.